#timestamp,LO_Frequency,Hit,StdDev 
1637107215.8,286046999.7,N
1637107235.6,286047002.5,N
1637107255.5,286047000.0,N
1637107275.3,286047000.8,N
1637107295.1,286047001.2,N
1637107315.9,286046999.4,N
1637107335.7,286046999.4,N
1637107355.5,286046998.7,N
1637107375.4,286046998.6,N
1637107395.2,286046998.2,N
1637107415.1,286046999.0,N
1637107416.0,286046999.0,N
1637107435.8,286046996.6,N
1637107455.6,286046996.6,N
1637107475.5,286046999.5,N
1637107495.3,286046996.8,N
1637107515.1,286046999.4,N
1637107535.9,286046996.8,N
1637107555.7,286046995.2,N
1637107575.6,286046995.2,N
1637107595.4,286046997.5,N
1637107615.2,286046996.8,N
1637107635.1,286046997.0,N
1637107636.0,286046997.0,N
1637107655.8,286046996.5,N
1637107675.7,286046999.2,N
1637107695.5,286046998.9,N
1637107715.3,286046996.5,N
1637107735.2,286046997.8,N
1637107755.9,286046995.0,N
1637107775.7,286046996.1,N
1637107795.6,286046993.4,Y
1637107815.4,286046997.2,P
1637107835.3,286046999.6,N
1637107855.1,286046999.1,N
1637107856.0,286046999.1,N
1637107875.8,286046998.0,N
1637107895.7,286046995.4,Y
1637107915.5,286046996.9,P
1637107935.3,286046996.9,P
1637107955.2,286046997.4,P
1637107975.0,286046996.8,Y
1637107975.9,286046996.8,P
1637107995.8,286047000.4,N
1637108015.6,286047000.2,N
1637108035.4,286046999.8,N
1637108055.3,286047000.3,N
1637108075.1,286047000.1,N
1637108095.8,286047002.0,N
1637108115.7,286047002.4,N
1637108135.5,286046999.8,N
1637108155.4,286047002.4,N
1637108175.2,286047000.1,N
1637108195.0,286047002.0,N
1637108195.9,286047002.0,N
1637108215.8,286047002.5,N
1637108235.6,286047002.4,N
1637108255.4,286047002.3,N
1637108275.3,286047001.7,N
1637108295.1,286047001.9,N
1637108315.9,286047000.2,N
1637108335.7,286047000.0,N
1637108355.5,286047000.2,N
1637108375.4,286047000.1,N
1637108395.2,286047000.4,N
1637108415.1,286047000.0,N
1637108416.0,286047000.0,N
1637108435.8,286047002.7,N
1637108455.6,286047000.0,N
1637108475.5,286046998.6,N
1637108495.3,286046998.7,N
1637108515.1,286047001.2,N
1637108535.9,286047001.0,N
1637108555.5,286047000.8,N
1637108575.3,286046998.3,N
1637108595.2,286047001.1,N
1637108615.0,286046998.5,N
1637108615.9,286046998.5,N
1637108635.8,286046998.2,N
1637108655.6,286046998.4,N
1637108675.5,286046999.1,N
1637108695.3,286046997.2,N
1637108715.1,286046997.1,N
1637108735.9,286046999.2,N
1637108755.7,286046996.6,N
1637108775.5,286046998.7,N
1637108795.4,286046999.1,N
1637108815.2,286046999.4,N
1637108835.1,286046999.2,N
1637108836.0,286046999.2,N
1637108855.8,286046998.2,N
1637108875.6,286047000.6,N
1637108895.5,286047000.9,N
1637108915.3,286047001.0,N
1637108935.2,286047001.2,N
1637108955.9,286047000.5,N
1637108975.7,286046998.1,N
1637108995.6,286047001.0,N
1637109015.4,286047000.8,N
1637109035.2,286047000.6,N
1637109055.1,286046998.7,N
1637109056.0,286046998.7,N
1637109075.8,286046999.0,N
1637109095.7,286046997.8,N
1637109115.5,286046996.6,N
1637109135.3,286046999.3,N
1637109155.2,286046997.0,N
1637109175.0,286046997.1,N
1637109175.9,286046997.1,N
1637109195.8,286046998.4,N
1637109215.6,286046997.5,N
1637109235.4,286046997.4,N
1637109255.3,286046996.9,N
1637109275.1,286046997.6,N
1637109295.9,286046997.7,N
1637109315.7,286046997.3,N
1637109335.5,286046997.3,N
1637109355.4,286046997.1,N
1637109375.2,286046997.8,N
1637109395.0,286046997.4,N
1637109395.9,286046997.4,N
1637109415.8,286046996.9,N
1637109435.6,286046998.0,N
1637109455.5,286046997.3,N
1637109475.3,286046997.8,N
1637109495.1,286046997.3,N
1637109515.9,286046997.4,N
1637109535.7,286046997.0,N
1637109555.5,286046998.1,N
1637109575.4,286046999.3,N
1637109595.2,286046999.5,N
1637109615.1,286046999.6,N
1637109616.0,286046999.6,N
1637109635.8,286046997.4,Y
1637109655.6,286047000.6,P
1637109675.5,286047001.0,N
1637109695.3,286046999.2,N
1637109715.2,286046999.1,N
1637109735.9,286046998.1,N
1637109755.7,286047000.6,N
1637109775.6,286047000.3,N
1637109795.4,286046998.1,N
1637109815.2,286046998.8,N
1637109835.1,286046998.1,N
1637109836.0,286046998.1,N
1637109855.8,286047001.0,N
1637109875.6,286046999.8,N
1637109895.5,286046999.9,N
1637109915.3,286046999.8,N
1637109935.2,286046999.8,N
1637109955.9,286047002.4,N
1637109975.7,286047002.2,N
1637109995.6,286046999.9,N
1637110015.4,286047002.1,N
1637110035.2,286047000.4,N
1637110055.1,286046998.3,N
1637110056.0,286046998.3,N
1637110075.8,286046998.1,N
1637110095.7,286046998.4,N
1637110115.5,286046998.4,N
1637110135.3,286046998.5,N
1637110155.2,286047001.2,N
1637110175.0,286047000.5,N
1637110175.9,286047000.5,N
1637110195.8,286046999.9,N
1637110215.6,286047002.2,N
1637110235.4,286047002.4,N
1637110255.3,286046999.7,N
1637110275.1,286046999.7,N
1637110295.8,286047001.1,N
1637110315.7,286047001.0,N
1637110335.5,286046998.1,N
1637110355.4,286046998.5,N
1637110375.2,286047000.5,N
1637110395.0,286047000.6,N
1637110395.9,286047000.6,N
1637110415.8,286046999.7,N
1637110435.6,286046999.7,N
1637110455.5,286047002.1,N
1637110475.3,286047002.6,N
1637110495.1,286046999.8,N
1637110515.9,286047000.4,N
1637110535.7,286047000.1,N
1637110555.6,286047002.4,N
1637110575.4,286047001.9,N
1637110595.2,286047002.6,N
1637110615.1,286046999.7,N
1637110616.0,286046999.7,N
1637110635.8,286047002.2,N
1637110655.7,286047002.6,N
1637110675.5,286047000.1,N
1637110695.3,286047002.0,N
1637110715.2,286047002.2,N
1637110735.9,286047002.2,N
1637110755.7,286047001.5,N
1637110775.6,286047002.0,N
1637110795.4,286047001.4,N
